Miscellaneous Local Product
Issued by NWS North Platte, NE

Home | Current Version | Previous Version | Graphics & Text | Print | Product List | Glossary On
Versions: 1 2 3 4 5 6 7 8 9 10 11 12 13 14 15 16 17 18 19 20 21 22 23 24 25 26 27 28 29 30 31 32 33 34 35 36 37 38 39 40 41 42 43 44 45 46 47 48 49 50
586
AXUS43 KLBF 252010
MISLBF


WESTERN AND NORTH CENTRAL NEBRASKA HOURLY WEATHER ROUNDUP
NATIONAL WEATHER SERVICE NORTH PLATTE NE
300 PM CDT SUN SEP 25 2016

NOTE: "FAIR" INDICATES FEW OR NO CLOUDS BELOW 12,000 FEET WITH NO
SIGNIFICANT WEATHER AND/OR OBSTRUCTIONS TO VISIBILITY.

NOTE: STATIONS NOT REPORTING VARIABLES SUCH AS SKY/WEATHER OR
PRESSURE ARE PROVIDED BY RAWS AND APRS NETWORKS AND ARE NOT UNDER
NATIONAL WEATHER SERVICE QUALITY CONTROL.

...OBSERVATIONS IN AND NEAR THE EASTERN PANHANDLE OF NEBRASKA...

CITY           SKY/WX    TMP DP  RH WIND       PRES   REMARKS
PINE RIDGE     SUNNY     66  23  19 N10G23    30.31F
CHADRON        SUNNY     64  25  22 NW21G35   30.34F
ALLIANCE       SUNNY     64  34  32 NW22G39   30.34F
SIDNEY         LGT RAIN  65  35  33 NW20G31   30.38F
CRESCENT LAKE    N/A     65  34  31 NW18G31     N/A
$$

...OBSERVATIONS IN NORTHERN NEBRASKA AND FAR SOUTHERN SOUTH DAKOTA...

CITY           SKY/WX    TMP DP  RH WIND       PRES   REMARKS
WINNER         FAIR      70  32  24 NW31G43   30.19F
VALENTINE      SUNNY     66  27  23 NW28G35   30.24F
THEDFORD       SUNNY     68  26  20 NW25G36   30.26F
AINSWORTH      SUNNY     65  32  29 NW25G33   30.24F
O`NEILL        SUNNY     69  29  22 NW29G35   30.19S
ORD            SUNNY     69  31  24 NW21G30   30.20F
BROKEN BOW     SUNNY     69  22  16 NW21G31   30.24F
VALENTINE NWR    N/A     65  25  22 NW21G32     N/A
BUTTE            N/A     65  34  32 NW29G43     N/A
HALSEY           N/A     68  23  18 NW13G26     N/A
EWING            N/A     68  39  34 NW16G26     N/A
$$

...OBSERVATIONS IN SOUTHWEST NEBRASKA AND FAR NORTHEAST COLORADO...

CITY           SKY/WX    TMP DP  RH WIND       PRES   REMARKS
WRAY           FAIR      72  32  23 NW15G28   30.35
HOLYOKE        FAIR      72  32  23 NW22G32   30.34F
IMPERIAL       MOSUNNY   69  32  25 N29G37    30.31F
OGALLALA       SUNNY     71  30  22 NW23G35   30.31F
NORTH PLATTE   SUNNY     73  29  19 NW23G32   30.27F
MCCOOK         SUNNY     74  32  21 N21G28    30.26F
LEXINGTON      SUNNY     70  32  24 NW17G29   30.25F
STAPLETON        N/A     68  28  22 MISG        N/A
GOTHENBURG       N/A     66  29  25 NW17        N/A
CALLAWAY         N/A     67  30  25 NW20        N/A
$$

...OBSERVATIONS IN CENTRAL LINCOLN COUNTY AREA...

CITY           SKY/WX    TMP DP  RH WIND       PRES   REMARKS
N.P. AIRPORT   SUNNY     73  29  19 NW23G32   30.27F
N.P. DOWNTOWN    N/A     68  29  23 NW12G24     N/A
N.P. SOUTHEAST   N/A     68  28  22 NW9G24      N/A
N.P. HILLCREST   N/A     67  28  23 NW22G29     N/A
$$

...SOME OBSERVATIONS FROM AROUND THE REGION...

CITY           SKY/WX    TMP DP  RH WIND       PRES   REMARKS
DENVER         MOSUNNY   64  30  27 CALM      30.39F
LARAMIE        SUNNY     54  29  38 VRB6      30.45F
CHEYENNE       SUNNY     61  27  27 NW13G23   30.40F
SCOTTSBLUFF    CLOUDY    66  36  32 NW13G23   30.36F
RAPID CITY     SUNNY     64  28  25 NW22G37   30.31F
BISMARCK       PTSUNNY   62  33  33 NW23G38   30.11S
PIERRE         SUNNY     66  31  27 NW30G43   30.16F
SIOUX FALLS    PTSUNNY   64  47  53 NW20G37   30.06S
OMAHA          PTSUNNY   69  48  47 NW17G29   30.11S
GRAND ISLAND   SUNNY     71  36  27 NW25      30.20F
KANSAS CITY    CLOUDY    63  54  72 NW7       30.13F
WICHITA        CLOUDY    67  51  56 N16       30.19F
OKLAHOMA CITY  CLOUDY    67  58  72 N18       30.13F
DALLAS         LGT RAIN  78  72  81 N6        30.02S
AMARILLO       SUNNY     74  40  29 NE26G36   30.29F
DODGE CITY     LGT RAIN  76  38  25 N21G26    30.26F
HAYS           SUNNY     73  41  31 N18       30.23F
GOODLAND       SUNNY     71  35  26 N16G29    30.31F
$$




USA.gov is the U.S. government's official web portal to all federal, state and local government web resources and services.